NOAA 17 DEB, 48734

Orbit data source: Space-Track

NOAA 17 DEB, 48734 is space debris in SSO originally from a launch on Mon, 24 Jun 2002 UTC launched from the Air Force Western Test Range (AFWTR). Debris objects in space refer to the collection of defunct objects orbiting the Earth. Examples of debris include non-operational satellites, rocket bodies, and fragments generated from explosions, collisions, or faulty payload assembly.

Loading next visibility...
Identifier
48734, 2002-032BT
Orbit
SSO
Country
Flag of USUS
Related business
Manufacturer
Unknown
Mission
Spacecraft
Bus & Motor
Unknown
Mass
Unknown
Launch date (UTC)
2002-06-24 (24 years ago)
Launch vehicle
Unknown
Launch site
Air Force Western Test Range (AFWTR)
Object type
Payload
Rocket body
Debris
Shape & HBR
Unknown shape, 0.1 m
Radar Cross Section
Medium (>0.1 m² and <1 m²)

Expand to show TLE details & history
Last TLE update: 2 days ago

TLE from 2 days ago
0 NOAA 17 DEB
1 48734U 02032BT  26170.96241679  .00009551  00000-0  16277-2 0  9998
2 48734  98.7363 180.2544 0010168  81.0636 279.1718 14.69212112275815
Epoch: 2026-06-19T23:05Z
TLE epoch observation values (Epoch: 2026-06-19T23:05:52.810Z)
Latitude
-0.00004°
Longitude
-74.3995°
Altitude
665.431 km
Speed
7.525 km/s
True Right ascension
12h 01m 01s
True Declination
0° 00' 00"
Sunlit
Object was in daylight at epoch
Visualization orbit readout
Latitude
Unknown
Longitude
Unknown
Altitude
Unknown
Speed
Unknown
Apparent Right ascension
Unknown
Apparent Declination
Unknown
Sunlit
N/A
Visualization observer readout
Local Sidereal Time
21:38:16
Azimuth
Unknown
Elevation
Unknown
Doppler factor
Unknown
Orbital elements
Apogee altitude
667.836 km
Perigee altitude
653.522 km
Semi-major axis
7,038.816 km
Eccentricity
0.00102
Inclination
98.7363°
RAAN
180.2544°
Arg. of periapsis
81.0636°
True anomaly
279.05675°
Mean anomaly
279.1718°
Eccentric anomaly
279.11428°
Mean motion
3.67531 °/min
Orbital period
97.95 mins
BSTAR
0.0016277
Loading maneuver chart data...
Computing Atmospheric mass density...

Documentation

Showing up to 5 results
|